Location: Ajisawe
(8.4333°N, 4.3833°E)
Time: 22:06:18
(UTC+00:00)

Vanguard 2 Rocket - Pass Details

Date: 22 April 2021
Orbit: 554 x 3326 km, 32.9° (Epoch: 16 May)

Event Time Altitude Azimuth Distance (km) Brightness Sun altitude
Rises 14:48:27 0° 294° (WNW) 6,858 12.1 43.8°
Reaches altitude 10° 14:53:55 10° 304° (NW) 6,081 12.0 42.4°
Maximum altitude 15:10:39 31° 1° (N) 4,669 10.9 38.4°
Drops below altitude 10° 15:25:52 10° 57° (ENE) 5,556 10.6 34.6°
Sets 15:30:32 0° 68° (ENE) 6,218 10.7 33.5°
